Time,TemperatureF,DewpointF,PressureIn,WindDirection,WindDirectionDegrees,WindSpeedMPH,WindSpeedGustMPH,Humidity,HourlyPrecipIn,Conditions,Clouds,dailyrainin,SoftwareType,DateUTC
2013-06-05 00:02:00,59.4,58.8,30.19,West,270,6.0,6.0,98,0.00,,,0.00,Weather View 32 v70,2013-06-05 05:02:00,
2013-06-05 00:07:00,59.6,59.0,30.19,WNW,292,2.0,6.0,98,0.00,,,0.00,Weather View 32 v70,2013-06-05 05:07:00,
2013-06-05 00:12:00,59.7,59.1,30.19,NW,315,4.0,6.0,98,0.00,,,0.00,Weather View 32 v70,2013-06-05 05:12:00,
2013-06-05 00:17:00,59.9,59.3,30.19,NW,315,3.0,6.0,98,0.00,,,0.00,Weather View 32 v70,2013-06-05 05:17:00,
2013-06-05 00:22:00,59.9,59.3,30.19,NW,315,2.0,6.0,98,0.00,,,0.00,Weather View 32 v70,2013-06-05 05:22:00,
2013-06-05 00:27:00,59.9,59.3,30.18,NW,315,2.0,6.0,98,0.00,,,0.00,Weather View 32 v70,2013-06-05 05:27:00,
2013-06-05 00:32:00,59.9,59.3,30.18,WNW,292,2.0,6.0,98,0.00,,,0.00,Weather View 32 v70,2013-06-05 05:32:00,
2013-06-05 00:37:00,59.9,59.3,30.19,WNW,292,4.0,6.0,98,0.00,,,0.00,Weather View 32 v70,2013-06-05 05:37:00,
2013-06-05 00:42:00,59.8,59.2,30.19,WNW,292,2.0,6.0,98,0.00,,,0.00,Weather View 32 v70,2013-06-05 05:42:00,
2013-06-05 00:47:00,59.7,59.1,30.20,WNW,292,2.0,6.0,98,0.00,,,0.00,Weather View 32 v70,2013-06-05 05:47:00,
2013-06-05 00:52:00,59.7,59.1,30.19,WNW,292,1.0,6.0,98,0.00,,,0.00,Weather View 32 v70,2013-06-05 05:52:00,
2013-06-05 00:57:00,59.6,59.0,30.19,NW,315,0.0,6.0,98,0.00,,,0.00,Weather View 32 v70,2013-06-05 05:57:00,
2013-06-05 01:02:00,59.1,58.5,30.18,North,360,2.0,6.0,98,0.00,,,0.00,Weather View 32 v70,2013-06-05 06:02:00,
2013-06-05 01:07:00,58.7,58.1,30.18,North,360,1.0,6.0,98,0.00,,,0.00,Weather View 32 v70,2013-06-05 06:07:00,
2013-06-05 01:12:00,58.4,57.8,30.18,North,360,2.0,6.0,98,0.00,,,0.00,Weather View 32 v70,2013-06-05 06:12:00,
2013-06-05 01:17:00,58.3,57.7,30.18,North,360,2.0,6.0,98,0.00,,,0.00,Weather View 32 v70,2013-06-05 06:17:00,
2013-06-05 01:22:00,58.2,57.6,30.18,WNW,292,2.0,6.0,98,0.00,,,0.00,Weather View 32 v70,2013-06-05 06:22:00,
2013-06-05 01:27:00,58.5,57.9,30.18,WNW,292,2.0,6.0,98,0.00,,,0.00,Weather View 32 v70,2013-06-05 06:27:00,
2013-06-05 01:32:00,58.8,58.2,30.18,NW,315,4.0,6.0,98,0.00,,,0.00,Weather View 32 v70,2013-06-05 06:32:00,
2013-06-05 01:37:00,58.9,58.3,30.18,West,270,4.0,5.0,98,0.00,,,0.00,Weather View 32 v70,2013-06-05 06:37:00,
2013-06-05 01:42:00,58.9,58.3,30.18,NW,315,6.0,6.0,98,0.00,,,0.00,Weather View 32 v70,2013-06-05 06:42:00,
2013-06-05 01:47:00,59.1,58.5,30.19,WNW,292,4.0,7.0,98,0.00,,,0.00,Weather View 32 v70,2013-06-05 06:47:00,
2013-06-05 01:52:00,59.0,58.4,30.19,West,270,4.0,7.0,98,0.00,,,0.00,Weather View 32 v70,2013-06-05 06:52:00,
2013-06-05 01:58:00,58.9,58.3,30.19,NW,315,7.0,9.0,98,0.00,,,0.00,Weather View 32 v70,2013-06-05 06:58:00,
2013-06-05 02:03:00,58.8,58.2,30.19,West,270,4.0,9.0,98,0.00,,,0.00,Weather View 32 v70,2013-06-05 07:03:00,
2013-06-05 02:08:00,58.9,58.3,30.19,NW,315,7.0,10.0,98,0.00,,,0.00,Weather View 32 v70,2013-06-05 07:08:00,
2013-06-05 02:13:00,58.9,58.3,30.19,West,270,6.0,11.0,98,0.00,,,0.00,Weather View 32 v70,2013-06-05 07:13:00,
2013-06-05 02:18:00,58.7,58.1,30.19,NW,315,12.0,17.0,98,0.00,,,0.00,Weather View 32 v70,2013-06-05 07:18:00,
2013-06-05 02:23:00,58.9,57.5,30.18,NW,315,5.0,17.0,95,0.00,,,0.00,Weather View 32 v70,2013-06-05 07:23:00,
2013-06-05 02:28:00,59.1,56.5,30.18,NW,315,6.0,17.0,91,0.00,,,0.00,Weather View 32 v70,2013-06-05 07:28:00,
2013-06-05 02:33:00,59.1,55.2,30.18,WNW,292,8.0,17.0,87,0.00,,,0.00,Weather View 32 v70,2013-06-05 07:33:00,
2013-06-05 02:38:00,59.1,53.9,30.18,NW,315,12.0,17.0,83,0.00,,,0.00,Weather View 32 v70,2013-06-05 07:38:00,
2013-06-05 02:43:00,59.1,54.3,30.19,NW,315,6.0,17.0,84,0.00,,,0.00,Weather View 32 v70,2013-06-05 07:43:00,
2013-06-05 02:48:00,58.9,53.1,30.19,West,270,8.0,17.0,81,0.00,,,0.00,Weather View 32 v70,2013-06-05 07:48:00,
2013-06-05 02:53:00,58.9,52.7,30.19,WNW,292,7.0,17.0,80,0.00,,,0.00,Weather View 32 v70,2013-06-05 07:53:00,
2013-06-05 02:58:00,58.8,51.9,30.20,NW,315,12.0,17.0,78,0.00,,,0.00,Weather View 32 v70,2013-06-05 07:58:00,
2013-06-05 03:03:00,58.7,52.2,30.20,WNW,292,4.0,17.0,79,0.00,,,0.00,Weather View 32 v70,2013-06-05 08:03:00,
2013-06-05 03:08:00,58.7,52.9,30.20,NW,315,9.0,17.0,81,0.00,,,0.00,Weather View 32 v70,2013-06-05 08:08:00,
2013-06-05 03:13:00,58.6,52.4,30.20,NW,315,7.0,17.0,80,0.00,,,0.00,Weather View 32 v70,2013-06-05 08:13:00,
2013-06-05 03:18:00,58.6,52.8,30.19,NW,315,9.0,17.0,81,0.00,,,0.00,Weather View 32 v70,2013-06-05 08:18:00,
2013-06-05 03:20:00,58.6,52.4,30.19,WNW,292,9.0,17.0,80,0.00,,,0.00,Weather View 32 v70,2013-06-05 08:20:00,
2013-06-05 10:08:00,59.7,47.5,30.21,NW,315,12.0,15.0,64,0.00,,,0.00,Weather View 32 v70,2013-06-05 15:08:00,
2013-06-05 10:13:00,59.9,48.5,30.20,NW,315,17.0,17.0,66,0.00,,,0.00,Weather View 32 v70,2013-06-05 15:13:00,
2013-06-05 10:18:00,60.1,48.7,30.20,West,270,9.0,19.0,66,0.00,,,0.00,Weather View 32 v70,2013-06-05 15:18:00,
2013-06-05 10:23:00,60.3,47.6,30.20,West,270,7.0,19.0,63,0.00,,,0.00,Weather View 32 v70,2013-06-05 15:23:00,
2013-06-05 10:28:00,60.4,47.7,30.20,WNW,292,12.0,19.0,63,0.00,,,0.00,Weather View 32 v70,2013-06-05 15:28:00,
2013-06-05 10:33:00,60.6,47.9,30.20,NW,315,11.0,19.0,63,0.00,,,0.00,Weather View 32 v70,2013-06-05 15:33:00,
2013-06-05 10:38:00,60.7,47.6,30.20,West,270,13.0,19.0,62,0.00,,,0.00,Weather View 32 v70,2013-06-05 15:38:00,
2013-06-05 10:43:00,60.8,47.7,30.20,NW,315,10.0,19.0,62,0.00,,,0.00,Weather View 32 v70,2013-06-05 15:43:00,
2013-06-05 10:48:00,60.6,48.3,30.20,NW,315,11.0,19.0,64,0.00,,,0.00,Weather View 32 v70,2013-06-05 15:48:00,
2013-06-05 10:53:00,60.4,47.7,30.20,NW,315,19.0,20.0,63,0.00,,,0.00,Weather View 32 v70,2013-06-05 15:53:00,
2013-06-05 10:58:00,60.4,49.0,30.20,SW,225,5.0,22.0,66,0.00,,,0.00,Weather View 32 v70,2013-06-05 15:58:00,
2013-06-05 11:03:00,60.6,48.7,30.20,NW,315,16.0,22.0,65,0.00,,,0.00,Weather View 32 v70,2013-06-05 16:03:00,
2013-06-05 11:08:00,60.5,47.4,30.20,WNW,292,11.0,22.0,62,0.00,,,0.00,Weather View 32 v70,2013-06-05 16:08:00,
2013-06-05 11:13:00,60.9,47.8,30.20,NW,315,15.0,22.0,62,0.00,,,0.00,Weather View 32 v70,2013-06-05 16:13:00,
2013-06-05 11:18:00,60.7,48.8,30.20,WNW,292,7.0,22.0,65,0.00,,,0.00,Weather View 32 v70,2013-06-05 16:18:00,
2013-06-05 11:23:00,60.8,48.5,30.20,NW,315,15.0,22.0,64,0.00,,,0.00,Weather View 32 v70,2013-06-05 16:23:00,
2013-06-05 11:28:00,60.7,48.8,30.21,NW,315,12.0,22.0,65,0.00,,,0.00,Weather View 32 v70,2013-06-05 16:28:00,
2013-06-05 11:33:00,60.8,50.1,30.20,NW,315,12.0,22.0,68,0.00,,,0.00,Weather View 32 v70,2013-06-05 16:33:00,
2013-06-05 11:38:00,60.7,48.8,30.20,WNW,292,16.0,22.0,65,0.00,,,0.00,Weather View 32 v70,2013-06-05 16:38:00,
2013-06-05 11:43:00,60.4,47.7,30.20,NW,315,15.0,22.0,63,0.00,,,0.00,Weather View 32 v70,2013-06-05 16:43:00,
2013-06-05 11:48:00,60.5,48.2,30.20,NW,315,12.0,22.0,64,0.00,,,0.00,Weather View 32 v70,2013-06-05 16:48:00,
2013-06-05 11:53:00,60.6,47.9,30.20,West,270,12.0,22.0,63,0.00,,,0.00,Weather View 32 v70,2013-06-05 16:53:00,
2013-06-05 11:58:00,60.7,48.8,30.20,West,270,5.0,21.0,65,0.00,,,0.00,Weather View 32 v70,2013-06-05 16:58:00,
2013-06-05 12:03:00,61.1,48.4,30.20,NW,315,12.0,21.0,63,0.00,,,0.00,Weather View 32 v70,2013-06-05 17:03:00,
2013-06-05 12:08:00,61.1,48.4,30.20,NW,315,11.0,21.0,63,0.00,,,0.00,Weather View 32 v70,2013-06-05 17:08:00,
2013-06-05 12:13:00,61.3,49.0,30.20,WNW,292,12.0,21.0,64,0.00,,,0.00,Weather View 32 v70,2013-06-05 17:13:00,
2013-06-05 12:18:00,61.2,48.9,30.21,NW,315,6.0,21.0,64,0.00,,,0.00,Weather View 32 v70,2013-06-05 17:18:00,
2013-06-05 12:23:00,61.1,48.0,30.21,WNW,292,8.0,21.0,62,0.00,,,0.00,Weather View 32 v70,2013-06-05 17:23:00,
2013-06-05 12:28:00,61.2,48.0,30.21,NW,315,12.0,21.0,62,0.00,,,0.00,Weather View 32 v70,2013-06-05 17:28:00,
2013-06-05 12:33:00,61.6,48.8,30.20,West,270,5.0,21.0,63,0.00,,,0.00,Weather View 32 v70,2013-06-05 17:33:00,
2013-06-05 12:38:00,61.8,48.2,30.20,West,270,7.0,21.0,61,0.00,,,0.00,Weather View 32 v70,2013-06-05 17:38:00,
2013-06-05 12:43:00,61.8,48.2,30.20,WNW,292,6.0,20.0,61,0.00,,,0.00,Weather View 32 v70,2013-06-05 17:43:00,
2013-06-05 12:48:00,61.9,48.3,30.20,NW,315,14.0,20.0,61,0.00,,,0.00,Weather View 32 v70,2013-06-05 17:48:00,
2013-06-05 12:53:00,61.8,49.5,30.20,WNW,292,2.0,20.0,64,0.00,,,0.00,Weather View 32 v70,2013-06-05 17:53:00,
2013-06-05 12:58:00,61.9,49.1,30.20,West,270,9.0,20.0,63,0.00,,,0.00,Weather View 32 v70,2013-06-05 17:58:00,
2013-06-05 13:03:00,61.8,49.5,30.21,WNW,292,9.0,20.0,64,0.00,,,0.00,Weather View 32 v70,2013-06-05 18:03:00,
2013-06-05 13:08:00,61.7,49.4,30.20,West,270,9.0,20.0,64,0.00,,,0.00,Weather View 32 v70,2013-06-05 18:08:00,
2013-06-05 13:13:00,61.7,48.1,30.20,NW,315,7.0,20.0,61,0.00,,,0.00,Weather View 32 v70,2013-06-05 18:13:00,
2013-06-05 13:18:00,61.9,48.3,30.21,NW,315,8.0,20.0,61,0.00,,,0.00,Weather View 32 v70,2013-06-05 18:18:00,
2013-06-05 13:23:00,61.8,49.5,30.21,NW,315,7.0,20.0,64,0.00,,,0.00,Weather View 32 v70,2013-06-05 18:23:00,
2013-06-05 13:28:00,61.9,48.3,30.21,WNW,292,6.0,20.0,61,0.00,,,0.00,Weather View 32 v70,2013-06-05 18:28:00,
2013-06-05 13:33:00,62.1,48.5,30.21,NW,315,13.0,20.0,61,0.00,,,0.00,Weather View 32 v70,2013-06-05 18:33:00,
2013-06-05 13:38:00,62.3,48.6,30.20,SW,225,3.0,20.0,61,0.00,,,0.00,Weather View 32 v70,2013-06-05 18:38:00,
2013-06-05 13:43:00,62.6,48.5,30.20,West,270,6.0,20.0,60,0.00,,,0.00,Weather View 32 v70,2013-06-05 18:43:00,
2013-06-05 13:48:00,62.5,48.8,30.20,NW,315,12.0,20.0,61,0.00,,,0.00,Weather View 32 v70,2013-06-05 18:48:00,
2013-06-05 13:53:00,62.1,48.0,30.20,West,270,7.0,20.0,60,0.00,,,0.00,Weather View 32 v70,2013-06-05 18:53:00,
2013-06-05 13:58:00,61.9,48.7,30.20,NW,315,6.0,19.0,62,0.00,,,0.00,Weather View 32 v70,2013-06-05 18:58:00,
2013-06-05 14:03:00,62.0,50.1,30.20,West,270,8.0,21.0,65,0.00,,,0.00,Weather View 32 v70,2013-06-05 19:03:00,
2013-06-05 14:09:00,61.9,48.3,30.20,NW,315,12.0,21.0,61,0.00,,,0.00,Weather View 32 v70,2013-06-05 19:09:00,
2013-06-05 14:14:00,61.9,49.1,30.20,NW,315,13.0,21.0,63,0.00,,,0.00,Weather View 32 v70,2013-06-05 19:14:00,
2013-06-05 14:19:00,61.9,48.7,30.19,West,270,6.0,21.0,62,0.00,,,0.00,Weather View 32 v70,2013-06-05 19:19:00,
2013-06-05 14:24:00,61.9,50.0,30.19,NW,315,7.0,21.0,65,0.00,,,0.00,Weather View 32 v70,2013-06-05 19:24:00,
2013-06-05 14:29:00,62.2,49.4,30.19,West,270,9.0,21.0,63,0.00,,,0.00,Weather View 32 v70,2013-06-05 19:29:00,
2013-06-05 14:34:00,62.2,49.8,30.19,SSW,202,1.0,21.0,64,0.00,,,0.00,Weather View 32 v70,2013-06-05 19:34:00,
2013-06-05 14:39:00,62.6,48.9,30.19,WNW,292,7.0,21.0,61,0.00,,,0.00,Weather View 32 v70,2013-06-05 19:39:00,
2013-06-05 14:44:00,62.7,49.5,30.19,WNW,292,3.0,21.0,62,0.00,,,0.00,Weather View 32 v70,2013-06-05 19:44:00,
2013-06-05 14:49:00,62.7,49.0,30.18,WNW,292,6.0,21.0,61,0.00,,,0.00,Weather View 32 v70,2013-06-05 19:49:00,
2013-06-05 14:54:00,62.9,49.2,30.18,West,270,6.0,21.0,61,0.00,,,0.00,Weather View 32 v70,2013-06-05 19:54:00,
2013-06-05 14:59:00,63.3,50.0,30.18,SW,225,4.0,21.0,62,0.00,,,0.00,Weather View 32 v70,2013-06-05 19:59:00,
2013-06-05 15:04:00,63.6,49.0,30.18,NW,315,10.0,17.0,59,0.00,,,0.00,Weather View 32 v70,2013-06-05 20:04:00,
2013-06-05 15:09:00,63.7,50.0,30.18,West,270,11.0,17.0,61,0.00,,,0.00,Weather View 32 v70,2013-06-05 20:09:00,
2013-06-05 15:14:00,63.5,49.3,30.18,West,270,2.0,17.0,60,0.00,,,0.00,Weather View 32 v70,2013-06-05 20:14:00,
2013-06-05 15:19:00,64.0,50.7,30.18,West,270,5.0,17.0,62,0.00,,,0.00,Weather View 32 v70,2013-06-05 20:19:00,
2013-06-05 15:24:00,64.3,49.2,30.18,NW,315,4.0,16.0,58,0.00,,,0.00,Weather View 32 v70,2013-06-05 20:24:00,
2013-06-05 15:29:00,64.0,49.3,30.18,West,270,4.0,14.0,59,0.00,,,0.00,Weather View 32 v70,2013-06-05 20:29:00,
2013-06-05 15:34:00,64.1,48.5,30.18,West,270,8.0,14.0,57,0.00,,,0.00,Weather View 32 v70,2013-06-05 20:34:00,
2013-06-05 15:39:00,64.4,48.8,30.18,NW,315,11.0,14.0,57,0.00,,,0.00,Weather View 32 v70,2013-06-05 20:39:00,
2013-06-05 15:44:00,64.9,48.3,30.18,WSW,247,3.0,14.0,55,0.00,,,0.00,Weather View 32 v70,2013-06-05 20:44:00,
2013-06-05 15:49:00,65.4,47.8,30.17,WNW,292,12.0,22.0,53,0.00,,,0.00,Weather View 32 v70,2013-06-05 20:49:00,
2013-06-05 15:54:00,65.3,48.2,30.17,WNW,292,5.0,22.0,54,0.00,,,0.00,Weather View 32 v70,2013-06-05 20:54:00,
2013-06-05 15:59:00,65.4,48.3,30.17,NW,315,11.0,22.0,54,0.00,,,0.00,Weather View 32 v70,2013-06-05 20:59:00,
2013-06-05 16:04:00,65.2,49.1,30.17,WNW,292,12.0,22.0,56,0.00,,,0.00,Weather View 32 v70,2013-06-05 21:04:00,
2013-06-05 16:09:00,64.9,48.3,30.17,NW,315,6.0,22.0,55,0.00,,,0.00,Weather View 32 v70,2013-06-05 21:09:00,
2013-06-05 16:14:00,64.7,49.5,30.16,WNW,292,12.0,22.0,58,0.00,,,0.00,Weather View 32 v70,2013-06-05 21:14:00,
2013-06-05 16:19:00,64.5,48.9,30.17,NW,315,9.0,22.0,57,0.00,,,0.00,Weather View 32 v70,2013-06-05 21:19:00,
2013-06-05 16:24:00,64.6,49.4,30.16,WNW,292,2.0,22.0,58,0.00,,,0.00,Weather View 32 v70,2013-06-05 21:24:00,
2013-06-05 16:29:00,64.9,49.7,30.16,NW,315,9.0,22.0,58,0.00,,,0.00,Weather View 32 v70,2013-06-05 21:29:00,
2013-06-05 16:34:00,64.9,50.2,30.16,NW,315,5.0,22.0,59,0.00,,,0.00,Weather View 32 v70,2013-06-05 21:34:00,
2013-06-05 16:39:00,64.9,49.7,30.16,NW,315,0.0,22.0,58,0.00,,,0.00,Weather View 32 v70,2013-06-05 21:39:00,
2013-06-05 16:44:00,65.1,49.9,30.16,NW,315,10.0,22.0,58,0.00,,,0.00,Weather View 32 v70,2013-06-05 21:44:00,
2013-06-05 16:49:00,65.2,51.4,30.16,WNW,292,6.0,18.0,61,0.00,,,0.00,Weather View 32 v70,2013-06-05 21:49:00,
2013-06-05 16:55:00,65.2,49.1,30.16,NW,315,4.0,18.0,56,0.00,,,0.00,Weather View 32 v70,2013-06-05 21:55:00,
2013-06-05 17:00:00,65.1,50.4,30.16,WNW,292,5.0,16.0,59,0.00,,,0.00,Weather View 32 v70,2013-06-05 22:00:00,
2013-06-05 17:05:00,65.2,50.5,30.16,WNW,292,6.0,16.0,59,0.00,,,0.00,Weather View 32 v70,2013-06-05 22:05:00,
2013-06-05 17:10:00,65.3,49.6,30.15,NW,315,3.0,16.0,57,0.00,,,0.00,Weather View 32 v70,2013-06-05 22:10:00,
2013-06-05 17:15:00,65.8,50.1,30.15,WNW,292,6.0,16.0,57,0.00,,,0.00,Weather View 32 v70,2013-06-05 22:15:00,
2013-06-05 17:20:00,66.2,49.5,30.15,NW,315,4.0,14.0,55,0.00,,,0.00,Weather View 32 v70,2013-06-05 22:20:00,
2013-06-05 17:25:00,65.9,50.7,30.15,NW,315,7.0,14.0,58,0.00,,,0.00,Weather View 32 v70,2013-06-05 22:25:00,
2013-06-05 17:30:00,65.8,51.0,30.15,NW,315,6.0,14.0,59,0.00,,,0.00,Weather View 32 v70,2013-06-05 22:30:00,
2013-06-05 17:35:00,65.6,49.0,30.15,NW,315,3.0,14.0,55,0.00,,,0.00,Weather View 32 v70,2013-06-05 22:35:00,
2013-06-05 17:40:00,65.5,49.8,30.15,NW,315,4.0,14.0,57,0.00,,,0.00,Weather View 32 v70,2013-06-05 22:40:00,
2013-06-05 17:45:00,65.5,51.7,30.15,SW,225,2.0,14.0,61,0.00,,,0.00,Weather View 32 v70,2013-06-05 22:45:00,
2013-06-05 17:50:00,65.6,49.4,30.15,NW,315,6.0,11.0,56,0.00,,,0.00,Weather View 32 v70,2013-06-05 22:50:00,
2013-06-05 17:55:00,65.6,50.4,30.15,NW,315,7.0,11.0,58,0.00,,,0.00,Weather View 32 v70,2013-06-05 22:55:00,
2013-06-05 18:00:00,65.8,50.1,30.15,West,270,7.0,11.0,57,0.00,,,0.00,Weather View 32 v70,2013-06-05 23:00:00,
2013-06-05 18:05:00,66.1,50.9,30.15,NW,315,3.0,11.0,58,0.00,,,0.00,Weather View 32 v70,2013-06-05 23:05:00,
2013-06-05 18:10:00,66.5,49.8,30.14,WNW,292,6.0,12.0,55,0.00,,,0.00,Weather View 32 v70,2013-06-05 23:10:00,
2013-06-05 18:15:00,67.0,50.7,30.14,SW,225,2.0,12.0,56,0.00,,,0.00,Weather View 32 v70,2013-06-05 23:15:00,
2013-06-05 18:20:00,67.3,50.5,30.14,West,270,7.0,14.0,55,0.00,,,0.00,Weather View 32 v70,2013-06-05 23:20:00,
2013-06-05 18:25:00,66.9,49.7,30.14,WNW,292,6.0,14.0,54,0.00,,,0.00,Weather View 32 v70,2013-06-05 23:25:00,
2013-06-05 18:30:00,66.7,50.9,30.14,NW,315,10.0,14.0,57,0.00,,,0.00,Weather View 32 v70,2013-06-05 23:30:00,
2013-06-05 18:35:00,66.9,50.2,30.14,WNW,292,2.0,14.0,55,0.00,,,0.00,Weather View 32 v70,2013-06-05 23:35:00,
2013-06-05 18:40:00,67.6,49.8,30.14,West,270,4.0,14.0,53,0.00,,,0.00,Weather View 32 v70,2013-06-05 23:40:00,
2013-06-05 18:45:00,67.4,49.1,30.14,NW,315,7.0,14.0,52,0.00,,,0.00,Weather View 32 v70,2013-06-05 23:45:00,
2013-06-05 18:50:00,66.9,50.2,30.14,WNW,292,12.0,17.0,55,0.00,,,0.00,Weather View 32 v70,2013-06-05 23:50:00,
2013-06-05 18:55:00,66.6,50.4,30.14,NW,315,7.0,17.0,56,0.00,,,0.00,Weather View 32 v70,2013-06-05 23:55:00,
2013-06-05 19:00:00,66.4,50.7,30.14,West,270,11.0,17.0,57,0.00,,,0.00,Weather View 32 v70,2013-06-06 00:00:00,
2013-06-05 19:05:00,66.2,51.9,30.14,West,270,7.0,17.0,60,0.00,,,0.00,Weather View 32 v70,2013-06-06 00:05:00,
2013-06-05 19:10:00,65.9,50.7,30.14,West,270,6.0,17.0,58,0.00,,,0.00,Weather View 32 v70,2013-06-06 00:10:00,
2013-06-05 19:15:00,65.7,50.5,30.14,WNW,292,8.0,17.0,58,0.00,,,0.00,Weather View 32 v70,2013-06-06 00:15:00,
2013-06-05 19:20:00,65.6,50.8,30.14,West,270,9.0,17.0,59,0.00,,,0.00,Weather View 32 v70,2013-06-06 00:20:00,
2013-06-05 19:25:00,65.5,50.8,30.14,West,270,6.0,17.0,59,0.00,,,0.00,Weather View 32 v70,2013-06-06 00:25:00,
2013-06-05 19:30:00,65.4,50.7,30.14,SW,225,3.0,17.0,59,0.00,,,0.00,Weather View 32 v70,2013-06-06 00:30:00,
2013-06-05 19:35:00,65.3,51.5,30.14,West,270,9.0,17.0,61,0.00,,,0.00,Weather View 32 v70,2013-06-06 00:35:00,
2013-06-05 19:40:00,65.3,51.5,30.14,West,270,7.0,17.0,61,0.00,,,0.00,Weather View 32 v70,2013-06-06 00:40:00,
2013-06-05 19:45:00,65.2,50.9,30.15,West,270,10.0,17.0,60,0.00,,,0.00,Weather View 32 v70,2013-06-06 00:45:00,
2013-06-05 19:50:00,65.2,51.8,30.15,West,270,9.0,16.0,62,0.00,,,0.00,Weather View 32 v70,2013-06-06 00:50:00,
2013-06-05 19:55:00,65.1,51.7,30.14,West,270,2.0,16.0,62,0.00,,,0.00,Weather View 32 v70,2013-06-06 00:55:00,
2013-06-05 20:00:00,65.0,52.5,30.15,WNW,292,4.0,16.0,64,0.00,,,0.00,Weather View 32 v70,2013-06-06 01:00:00,
2013-06-05 20:05:00,64.9,52.0,30.15,WNW,292,2.0,16.0,63,0.00,,,0.00,Weather View 32 v70,2013-06-06 01:05:00,
2013-06-05 20:10:00,64.9,52.0,30.15,WNW,292,4.0,16.0,63,0.00,,,0.00,Weather View 32 v70,2013-06-06 01:10:00,
2013-06-05 20:15:00,64.9,52.0,30.15,West,270,6.0,16.0,63,0.00,,,0.00,Weather View 32 v70,2013-06-06 01:15:00,
2013-06-05 20:20:00,64.7,51.8,30.15,West,270,9.0,16.0,63,0.00,,,0.00,Weather View 32 v70,2013-06-06 01:20:00,
2013-06-05 20:25:00,64.6,52.1,30.15,West,270,4.0,13.0,64,0.00,,,0.00,Weather View 32 v70,2013-06-06 01:25:00,
2013-06-05 20:30:00,64.4,51.9,30.15,West,270,8.0,13.0,64,0.00,,,0.00,Weather View 32 v70,2013-06-06 01:30:00,
2013-06-05 20:35:00,64.3,51.8,30.15,West,270,5.0,13.0,64,0.00,,,0.00,Weather View 32 v70,2013-06-06 01:35:00,
2013-06-05 20:40:00,64.1,52.5,30.15,WNW,292,6.0,13.0,66,0.00,,,0.00,Weather View 32 v70,2013-06-06 01:40:00,
2013-06-05 20:45:00,63.9,52.3,30.15,West,270,6.0,13.0,66,0.00,,,0.00,Weather View 32 v70,2013-06-06 01:45:00,
2013-06-05 20:50:00,63.8,52.2,30.15,West,270,5.0,12.0,66,0.00,,,0.00,Weather View 32 v70,2013-06-06 01:50:00,
2013-06-05 20:55:00,63.7,52.5,30.15,West,270,5.0,11.0,67,0.00,,,0.00,Weather View 32 v70,2013-06-06 01:55:00,
2013-06-05 21:00:00,63.6,52.4,30.15,West,270,2.0,11.0,67,0.00,,,0.00,Weather View 32 v70,2013-06-06 02:00:00,
2013-06-05 21:05:00,63.6,52.8,30.15,WNW,292,6.0,11.0,68,0.00,,,0.00,Weather View 32 v70,2013-06-06 02:05:00,
2013-06-05 21:10:00,63.5,52.7,30.15,West,270,2.0,11.0,68,0.00,,,0.00,Weather View 32 v70,2013-06-06 02:10:00,
2013-06-05 21:15:00,63.4,53.0,30.15,WNW,292,4.0,11.0,69,0.00,,,0.00,Weather View 32 v70,2013-06-06 02:15:00,
2013-06-05 21:20:00,63.4,52.2,30.15,NW,315,6.0,11.0,67,0.00,,,0.00,Weather View 32 v70,2013-06-06 02:20:00,
2013-06-05 21:25:00,63.4,52.6,30.15,West,270,4.0,11.0,68,0.00,,,0.00,Weather View 32 v70,2013-06-06 02:25:00,
2013-06-05 21:30:00,63.4,52.6,30.15,West,270,5.0,11.0,68,0.00,,,0.00,Weather View 32 v70,2013-06-06 02:30:00,
2013-06-05 21:35:00,63.3,53.3,30.15,West,270,4.0,11.0,70,0.00,,,0.00,Weather View 32 v70,2013-06-06 02:35:00,
2013-06-05 21:40:00,63.3,52.1,30.15,WSW,247,4.0,10.0,67,0.00,,,0.00,Weather View 32 v70,2013-06-06 02:40:00,
2013-06-05 21:45:00,63.3,52.5,30.16,West,270,3.0,9.0,68,0.00,,,0.00,Weather View 32 v70,2013-06-06 02:45:00,
2013-06-05 21:50:00,63.2,53.2,30.16,West,270,4.0,9.0,70,0.00,,,0.00,Weather View 32 v70,2013-06-06 02:50:00,
2013-06-05 21:55:00,63.2,52.8,30.16,West,270,4.0,9.0,69,0.00,,,0.00,Weather View 32 v70,2013-06-06 02:55:00,
2013-06-05 22:00:00,63.1,52.7,30.16,West,270,4.0,9.0,69,0.00,,,0.00,Weather View 32 v70,2013-06-06 03:00:00,
2013-06-05 22:05:00,63.1,52.7,30.16,West,270,2.0,9.0,69,0.00,,,0.00,Weather View 32 v70,2013-06-06 03:05:00,
2013-06-05 22:10:00,63.0,52.6,30.16,West,270,4.0,9.0,69,0.00,,,0.00,Weather View 32 v70,2013-06-06 03:10:00,
2013-06-05 22:15:00,62.9,52.5,30.16,West,270,4.0,9.0,69,0.00,,,0.00,Weather View 32 v70,2013-06-06 03:15:00,
2013-06-05 22:20:00,62.9,52.9,30.16,West,270,4.0,9.0,70,0.00,,,0.00,Weather View 32 v70,2013-06-06 03:20:00,
2013-06-05 22:25:00,62.8,52.8,30.16,WNW,292,2.0,8.0,70,0.00,,,0.00,Weather View 32 v70,2013-06-06 03:25:00,
2013-06-05 22:30:00,62.7,53.1,30.16,WNW,292,3.0,8.0,71,0.00,,,0.00,Weather View 32 v70,2013-06-06 03:30:00,
2013-06-05 22:35:00,62.6,53.0,30.16,West,270,3.0,8.0,71,0.00,,,0.00,Weather View 32 v70,2013-06-06 03:35:00,
2013-06-05 22:40:00,62.6,53.4,30.16,West,270,3.0,8.0,72,0.00,,,0.00,Weather View 32 v70,2013-06-06 03:40:00,
2013-06-05 22:45:00,62.5,53.3,30.16,West,270,2.0,8.0,72,0.00,,,0.00,Weather View 32 v70,2013-06-06 03:45:00,
2013-06-05 22:50:00,62.4,53.6,30.16,WSW,247,2.0,8.0,73,0.00,,,0.00,Weather View 32 v70,2013-06-06 03:50:00,
2013-06-05 22:55:00,62.3,53.1,30.16,West,270,6.0,8.0,72,0.00,,,0.00,Weather View 32 v70,2013-06-06 03:55:00,
2013-06-05 23:00:00,62.3,53.5,30.16,WNW,292,3.0,8.0,73,0.00,,,0.00,Weather View 32 v70,2013-06-06 04:00:00,
2013-06-05 23:01:00,62.3,53.5,30.16,WNW,292,2.0,8.0,73,0.00,,,0.00,Weather View 32 v70,2013-06-06 04:01:00,
2013-06-05 23:07:00,62.4,53.6,30.16,WNW,292,1.0,8.0,73,0.00,,,0.00,Weather View 32 v70,2013-06-06 04:07:00,
2013-06-05 23:12:00,62.3,53.9,30.16,NW,315,2.0,7.0,74,0.00,,,0.00,Weather View 32 v70,2013-06-06 04:12:00,
2013-06-05 23:17:00,62.2,53.8,30.16,West,270,2.0,7.0,74,0.00,,,0.00,Weather View 32 v70,2013-06-06 04:17:00,
2013-06-05 23:22:00,62.1,53.7,30.16,West,270,1.0,7.0,74,0.00,,,0.00,Weather View 32 v70,2013-06-06 04:22:00,
2013-06-05 23:27:00,62.0,54.0,30.17,West,270,2.0,6.0,75,0.00,,,0.00,Weather View 32 v70,2013-06-06 04:27:00,
2013-06-05 23:32:00,61.9,53.9,30.16,WNW,292,2.0,6.0,75,0.00,,,0.00,Weather View 32 v70,2013-06-06 04:32:00,
2013-06-05 23:37:00,61.9,53.9,30.16,WNW,292,1.0,6.0,75,0.00,,,0.00,Weather View 32 v70,2013-06-06 04:37:00,
2013-06-05 23:42:00,61.8,53.8,30.16,NW,315,1.0,6.0,75,0.00,,,0.00,Weather View 32 v70,2013-06-06 04:42:00,
2013-06-05 23:47:00,61.7,54.0,30.16,NW,315,2.0,6.0,76,0.00,,,0.00,Weather View 32 v70,2013-06-06 04:47:00,
2013-06-05 23:52:00,61.7,54.0,30.16,NW,315,3.0,6.0,76,0.00,,,0.00,Weather View 32 v70,2013-06-06 04:52:00,
2013-06-05 23:57:00,61.6,53.9,30.16,NW,315,2.0,6.0,76,0.00,,,0.00,Weather View 32 v70,2013-06-06 04:57:00,